loading
|

STARLINK-11180, 60185

Orbit data source: Space-Track

STARLINK-11180, 60185 is a payload satellite owned by SpaceX/Seattle (US) in LEO that was launched on Wed, 03 Jul 2024 UTC via an FALCON 9 launch vehicle from the Air Force Eastern Test Range (AFETR). Payloads include a variety of satellites, spacecraft, and rockets equipped with specific instruments for various scientific and technological missions. These include communications satellites like Starlink; space stations such as the ISS; scientific satellites like the Hubble; Earth observation satellites from companies like Planet Labs, Umbra, and HawkEye 360; GPS; miniature CubeSats for education and research; and military/defense satellites.

Loading next visibility...
Loading greatness...
STARLINK-11180 details
Identifier
60185, 2024-124C
Orbit
LEO
Last TLE update12 hours ago
Origin
Flag of USSpaceX/Seattle (US)
ManufacturerSpaceX/Seattle
Mission statusOperational
MissionUnknown
Bus & MotorSTARLINK V2M, Unknown motor
Mass750 kg wet, ~700 kg dry
Launch date (UTC)
2024-07-03 (3 months ago)
Launch vehicle
FALCON 9
Launch site
Air Force Eastern Test Range (AFETR)
Object type
Payload
Rocket body
Debris
Radar Cross SectionLarge (>1 m²)

Expand to show TLE details & history

TLE from 12 hours ago
0 STARLINK-11180
1 60185U 24124C   24261.47313703  .00012731  00000-0  10975-3 0  9995
2 60185  53.1556 294.2788 0001222 100.0810 260.0345 15.69716365 12006
Epoch: 2024-09-17T11:21Z
Definitive object data (Epoch: 2024-09-17T11:21:19.039Z)
Latitude-0.00008°
Longitude127.06212°
Altitude360.766 km
Speed7.694 km/s
True Right ascension19h 37m 06s
True Declination0° 00' 00"
Sunlit
Object was in full shadow at TLE epoch
Predictive object data (real-time)
Latitude-26.8214°
Longitude102.44884°
Altitude368.201 km
Speed7.688 km/s
Apparent Right ascension21h 30m 16s
Apparent Declination-69° 18' 30"
Sunlit
Object is in daylight
Predictive observer data (real-time)
Local Sidereal Time16:15:08
Azimuth155.531° SSE
Elevation-33.199°
Doppler factor1
Orbital elements
Apogee360.793 km
Perigee359.147 km
Semi-major axis6,738.107 km
Eccentricity0.0001222
Inclination53.1556°
RAAN294.2788°
Arg. of periapsis100.081°
True anomaly260.02071°
Mean anomaly260.0345°
Eccentric anomaly260.0276°
Mean motion3.92407 °/min
BSTAR0.00010975
Period91.74 mins
No data available

STARLINK-11180 Visibility forecast

Observer location: 39.9160978°, -105.1181434

STARLINK-11180 is not visible in the next 10 days
Span
Click to sort rows by Start time (UTC) header in descending order
Start Az.
Max El. time (UTC)
Max El. Az.
Max El.
End time (UTC)
End Az.